Location: Wapato
(46.4478°N, 120.4212°W)
Time: 11:16:04
(UTC+00:00)

Transit 2A Rocket - Visible Passes

Search period start: 15 May 2026 00:00
Search period end: 25 May 2026 00:00
Orbit: 587 x 895 km, 66.7° (Epoch: 14 May)

Date Brightness Start Highest point End Pass type
(mag) Time Alt. Az. Time Alt. Az. Time Alt. Az.
15 May 7.0 04:16:17 10° WSW 04:21:22 35° NW 04:26:06 10° NNE visible
15 May 8.5 06:04:04 10° NW 06:05:13 11° NNW 06:06:22 10° N visible
15 May 8.0 09:32:35 10° N 09:34:56 13° NNE 09:37:11 10° ENE visible
15 May 5.2 11:13:46 10° NNW 11:18:20 60° NE 11:22:37 10° SE visible
16 May 8.1 05:15:55 10° WNW 05:18:52 15° NNW 05:21:43 10° N visible
16 May 6.4 10:28:11 10° NNW 10:32:27 34° NE 10:36:27 10° ESE visible
17 May 7.9 04:28:35 10° W 04:32:39 21° NW 04:36:30 10° N visible
17 May 7.2 09:42:47 10° NNW 09:46:23 22° NE 09:49:50 10° E visible
17 May 4.5 11:24:39 10° NW 11:29:09 61° WSW 11:33:23 10° SSE visible
18 May 7.7 08:57:33 10° N 09:00:12 15° NNE 09:02:44 10° ENE visible
18 May 4.8 10:38:52 10° NNW 10:43:27 71° NE 10:47:45 10° SE visible
19 May 8.1 04:41:40 10° WNW 04:44:09 13° NNW 04:46:34 10° N visible
19 May 8.0 08:13:00 10° NNE 08:13:51 10° NNE 08:14:43 10° NE visible
19 May 6.0 09:53:15 10° NNW 09:57:36 39° NE 10:01:41 10° ESE visible
19 May 5.5 11:35:59 10° NW 11:39:42 26° WSW 11:43:17 10° SSW visible
20 May 6.9 09:07:48 10° NNW 09:11:36 24° NE 09:15:11 10° E visible
20 May 4.7 10:49:50 10° NW 10:54:12 50° WSW 10:58:21 10° SSE visible
21 May 7.4 08:22:31 10° N 08:25:26 16° NNE 08:28:14 10° ENE visible
21 May 4.5 10:03:59 10° NNW 10:08:33 84° ENE 10:12:51 10° SE visible
22 May 8.1 04:07:29 10° NW 04:09:26 12° NNW 04:11:20 10° N visible
22 May 7.7 07:37:39 10° N 07:39:08 11° NNE 07:40:36 10° NE visible
22 May 5.6 09:18:19 10° NNW 09:22:45 46° NE 09:26:54 10° SE visible
22 May 5.8 11:01:18 10° WNW 11:04:43 22° WSW 11:07:08 14° SSW visible
23 May 6.5 08:32:50 10° NNW 08:36:46 27° NE 08:40:31 10° ESE visible
23 May 4.9 10:15:01 10° NW 10:19:15 41° WSW 10:21:09 26° SSW visible
24 May 7.2 07:47:29 10° N 07:50:40 18° NE 07:53:42 10° E visible
24 May 4.4 09:29:06 10° NW 09:33:38 82° WSW 09:35:30 33° SSE visible
